DLH189 EDDM-LPPR

Flight info

Callsign DLH189
Flight time N/A
Altitude 41000
Route EDDM/08L N0476F410 ALG2Q ALG Y109 UMTEX Y100 TRA DCT LUTIX DCT BENOT DCT NEMOS DCT NINTU DCT MEBAK DCT REPSI DCT LERGA DCT MINSO DCT NARAK DCT AGN DCT PIPOR L866 PPN N976 ZMR L155 ADORO DCT INKIT INKI6C LPPR/35
Aircraft A359/H-SDE2E3GHIJ3J4J5LM1ORWXY/LB1D1

Departure

Time 2026-05-01 12:06
Airport Munich Airport (EDDM)

Arrival

Time N/A
Airport Francisco de Sá Carneiro Airport (LPPR)
Time Latitude Longitude Altitude Speed Heading
2026-05-01 11:34 48.35470 11.79754 1492 ft 0 kts 81°
2026-05-01 11:49 48.35470 11.79751 1492 ft 2 kts 79°
2026-05-01 11:49 48.35467 11.79726 1480 ft 2 kts 86°
2026-05-01 11:49 48.35466 11.79701 1482 ft 2 kts 83°
2026-05-01 11:49 48.35464 11.79676 1478 ft 2 kts 85°
2026-05-01 11:50 48.35463 11.79652 1480 ft 2 kts 89°
2026-05-01 11:50 48.35464 11.79627 1483 ft 2 kts 96°
2026-05-01 11:50 48.35467 11.79602 1476 ft 2 kts 120°
2026-05-01 11:50 48.35479 11.79585 1476 ft 2 kts 167°
2026-05-01 11:51 48.35489 11.79582 1482 ft 1 kts 173°
2026-05-01 11:51 48.35490 11.79582 1481 ft 0 kts 174°
2026-05-01 11:52 48.35466 11.79587 1476 ft 6 kts 172°
2026-05-01 11:53 48.35416 11.79597 1476 ft 9 kts 172°
2026-05-01 11:53 48.35348 11.79609 1480 ft 11 kts 174°
2026-05-01 11:53 48.35265 11.79623 1486 ft 13 kts 174°
2026-05-01 11:53 48.35165 11.79639 1484 ft 15 kts 174°
2026-05-01 11:54 48.35054 11.79659 1484 ft 14 kts 172°
2026-05-01 11:54 48.34997 11.79662 1492 ft 6 kts 190°
2026-05-01 11:54 48.34993 11.79650 1492 ft 0 kts 241°
2026-05-01 11:54 48.34992 11.79630 1476 ft 5 kts 259°
2026-05-01 11:55 48.34979 11.79562 1480 ft 7 kts 240°
2026-05-01 11:55 48.34943 11.79546 1486 ft 6 kts 182°
2026-05-01 11:55 48.34896 11.79553 1486 ft 8 kts 173°
2026-05-01 11:55 48.34873 11.79557 1478 ft 0 kts 173°
2026-05-01 11:56 48.34864 11.79559 1478 ft 2 kts 173°
2026-05-01 11:56 48.34858 11.79560 1480 ft 0 kts 173°
2026-05-01 11:58 48.34848 11.79562 1487 ft 4 kts 173°
2026-05-01 11:58 48.34799 11.79546 1485 ft 5 kts 237°
2026-05-01 11:59 48.34782 11.79445 1477 ft 15 kts 263°
2026-05-01 11:59 48.34761 11.79178 1487 ft 22 kts 263°
2026-05-01 11:59 48.34743 11.78938 1492 ft 25 kts 263°
2026-05-01 12:00 48.34708 11.78482 1487 ft 28 kts 263°
2026-05-01 12:00 48.34685 11.78185 1482 ft 30 kts 263°
2026-05-01 12:00 48.34637 11.77566 1478 ft 28 kts 263°
2026-05-01 12:01 48.34614 11.77266 1489 ft 30 kts 263°
2026-05-01 12:01 48.34590 11.76950 1488 ft 31 kts 263°
2026-05-01 12:01 48.34568 11.76668 1491 ft 21 kts 263°
2026-05-01 12:01 48.34550 11.76432 1477 ft 24 kts 263°
2026-05-01 12:02 48.34530 11.76179 1491 ft 26 kts 263°
2026-05-01 12:02 48.34509 11.75901 1480 ft 28 kts 263°
2026-05-01 12:02 48.34486 11.75601 1483 ft 30 kts 263°
2026-05-01 12:02 48.34462 11.75295 1481 ft 25 kts 263°
2026-05-01 12:03 48.34453 11.75234 1491 ft 0 kts 235°
2026-05-01 12:03 48.34439 11.75224 1476 ft 4 kts 208°
2026-05-01 12:03 48.34396 11.75220 1479 ft 10 kts 174°
2026-05-01 12:03 48.34320 11.75232 1485 ft 12 kts 174°
2026-05-01 12:04 48.34229 11.75248 1485 ft 14 kts 173°
2026-05-01 12:04 48.34207 11.75252 1479 ft 0 kts 173°
2026-05-01 12:04 48.34205 11.75253 1477 ft 2 kts 173°
2026-05-01 12:04 48.34176 11.75258 1487 ft 6 kts 173°
2026-05-01 12:05 48.34126 11.75267 1484 ft 9 kts 173°
2026-05-01 12:05 48.34099 11.75426 1492 ft 36 kts 82°
2026-05-01 12:05 48.34151 11.76175 1478 ft 105 kts 83°
2026-05-01 12:06 48.34253 11.77562 1576 ft 152 kts 84°
2026-05-01 12:06 48.34346 11.79039 2548 ft 135 kts 85°
2026-05-01 12:06 48.34490 11.80521 2996 ft 161 kts 79°
2026-05-01 12:06 48.34695 11.82330 3359 ft 189 kts 83°
2026-05-01 12:07 48.34827 11.84388 4005 ft 205 kts 86°
2026-05-01 12:07 48.34966 11.86566 4934 ft 210 kts 84°
2026-05-01 12:07 48.35129 11.88792 5791 ft 220 kts 85°
2026-05-01 12:07 48.35301 11.91124 6702 ft 226 kts 85°
2026-05-01 12:08 48.35380 11.93492 7550 ft 231 kts 95°
2026-05-01 12:08 48.34925 11.95824 8450 ft 237 kts 118°
2026-05-01 12:08 48.33821 11.97721 9384 ft 246 kts 137°
2026-05-01 12:08 48.32442 11.99326 10307 ft 253 kts 140°
2026-05-01 12:09 48.31042 12.00915 11112 ft 259 kts 139°
2026-05-01 12:09 48.29490 12.02344 11944 ft 269 kts 154°
2026-05-01 12:09 48.27578 12.02847 12642 ft 289 kts 177°
2026-05-01 12:09 48.23914 12.02557 13881 ft 309 kts 181°
2026-05-01 12:10 48.19546 12.02238 15416 ft 319 kts 180°
2026-05-01 12:10 48.10436 12.01323 18523 ft 339 kts 193°
2026-05-01 12:10 48.06650 11.97249 19817 ft 353 kts 236°
2026-05-01 12:11 48.03989 11.83022 22556 ft 363 kts 258°
2026-05-01 12:11 48.02746 11.75562 23879 ft 370 kts 258°
2026-05-01 12:11 48.01477 11.67992 25011 ft 376 kts 259°
2026-05-01 12:12 48.01035 11.62867 25737 ft 377 kts 269°
2026-05-01 12:12 48.00568 11.52380 27201 ft 385 kts 269°
2026-05-01 12:12 48.00192 11.44325 28317 ft 390 kts 269°
2026-05-01 12:12 47.99805 11.36184 29364 ft 396 kts 269°
2026-05-01 12:13 47.99406 11.27976 30367 ft 402 kts 269°
2026-05-01 12:13 47.98994 11.19580 31194 ft 407 kts 269°
2026-05-01 12:13 47.98570 11.11084 31940 ft 413 kts 269°
2026-05-01 12:13 47.98258 11.02568 32678 ft 417 kts 274°
2026-05-01 12:14 47.98469 10.93747 33171 ft 429 kts 275°
2026-05-01 12:14 47.98659 10.84738 33661 ft 441 kts 275°
2026-05-01 12:14 47.98849 10.75511 34146 ft 451 kts 275°
2026-05-01 12:14 47.98914 10.72296 34338 ft 454 kts 275°
2026-05-01 12:15 47.98966 10.69666 34475 ft 457 kts 275°
2026-05-01 12:15 47.99121 10.61679 34868 ft 464 kts 274°
2026-05-01 12:15 47.99300 10.52087 35352 ft 471 kts 274°
2026-05-01 12:16 47.99476 10.42205 35850 ft 477 kts 274°
2026-05-01 12:16 47.99642 10.32219 36514 ft 479 kts 273°
2026-05-01 12:16 47.98821 10.22567 37121 ft 485 kts 254°
2026-05-01 12:16 47.96420 10.13031 37879 ft 484 kts 251°
2026-05-01 12:17 47.94044 10.03620 38055 ft 486 kts 255°
2026-05-01 12:17 47.91781 9.94040 37913 ft 488 kts 253°
2026-05-01 12:17 47.89552 9.84546 38162 ft 484 kts 250°
2026-05-01 12:17 47.87148 9.75277 38065 ft 485 kts 252°
2026-05-01 12:18 47.83568 9.59047 38183 ft 481 kts 272°
2026-05-01 12:18 47.83711 9.53614 38634 ft 476 kts 272°
2026-05-01 12:18 47.82470 9.43951 39285 ft 477 kts 254°
2026-05-01 12:19 47.80604 9.34505 39737 ft 476 kts 257°
2026-05-01 12:19 47.79189 9.24951 40190 ft 475 kts 261°
2026-05-01 12:19 47.78003 9.15227 40597 ft 474 kts 261°
2026-05-01 12:19 47.76836 9.05667 40912 ft 475 kts 262°
2026-05-01 12:20 47.76235 8.98797 40489 ft 481 kts 277°
2026-05-01 12:20 47.76753 8.93861 40719 ft 476 kts 282°
2026-05-01 12:20 47.76828 8.86772 41192 ft 475 kts 260°
2026-05-01 12:20 47.74544 8.77475 41308 ft 483 kts 248°
2026-05-01 12:21 47.70869 8.59167 41311 ft 482 kts 260°
2026-05-01 12:21 47.67231 8.40305 41313 ft 482 kts 240°
2026-05-01 12:22 47.59446 8.24055 41309 ft 483 kts 235°
2026-05-01 12:22 47.51629 8.08028 41299 ft 482 kts 235°
2026-05-01 12:23 47.43779 7.92005 41290 ft 481 kts 235°
2026-05-01 12:23 47.35826 7.75870 41284 ft 480 kts 235°
2026-05-01 12:24 47.27975 7.60039 41287 ft 481 kts 234°
2026-05-01 12:24 47.20085 7.44219 41291 ft 481 kts 234°
2026-05-01 12:25 47.07804 7.20897 41289 ft 482 kts 231°
2026-05-01 12:26 46.99742 7.06129 41227 ft 476 kts 237°
2026-05-01 12:26 46.96122 6.91351 40033 ft 475 kts 234°
2026-05-01 12:26 46.91133 6.85182 40498 ft 473 kts 211°
2026-05-01 12:27 46.85745 6.79640 40991 ft 470 kts 222°
2026-05-01 12:27 46.77061 6.65369 41294 ft 480 kts 232°
2026-05-01 12:28 46.64733 6.43057 41283 ft 479 kts 231°
2026-05-01 12:29 46.52011 6.20473 41286 ft 478 kts 231°
2026-05-01 12:29 46.39402 5.98266 41288 ft 477 kts 231°
2026-05-01 12:30 46.26737 5.76135 41277 ft 475 kts 231°
2026-05-01 12:31 46.18264 5.61427 41260 ft 475 kts 231°